Time,TemperatureF,DewpointF,PressureIn,WindDirection,WindDirectionDegrees,WindSpeedMPH,WindSpeedGustMPH,Humidity,HourlyPrecipIn,Conditions,Clouds,dailyrainin,SoftwareType,DateUTC
2013-12-18 14:12:00,55.0,25.0,-100.00,SW,219,11.0,16.0,31,-99.99,,,-99.99,,2013-12-18 22:12:00,
2013-12-18 14:22:00,54.0,25.0,-100.00,SW,217,11.0,16.0,32,-99.99,,,-99.99,,2013-12-18 22:22:00,
2013-12-18 14:33:00,54.0,25.0,-100.00,SW,217,11.0,16.0,32,-99.99,,,-99.99,,2013-12-18 22:33:00,
2013-12-18 15:22:00,53.0,24.0,-100.00,SSW,202,9.0,19.0,32,-99.99,,,-99.99,,2013-12-18 23:22:00,
2013-12-18 15:42:00,52.0,22.0,-100.00,SSW,212,8.0,15.0,31,-99.99,,,-99.99,,2013-12-18 23:42:00,
2013-12-18 15:53:00,52.0,22.0,-100.00,SSW,212,8.0,15.0,31,-99.99,,,-99.99,,2013-12-18 23:53:00,
2013-12-18 16:42:00,50.0,23.0,-100.00,SSW,198,11.0,21.0,34,-99.99,,,-99.99,,2013-12-19 00:42:00,
2013-12-18 16:52:00,50.0,23.0,-100.00,SSW,198,11.0,21.0,34,-99.99,,,-99.99,,2013-12-19 00:52:00,
2013-12-18 17:01:00,50.0,23.0,-100.00,SSW,198,11.0,21.0,34,-99.99,,,-99.99,,2013-12-19 01:01:00,
2013-12-18 17:42:00,48.0,24.0,-100.00,SSW,209,14.0,26.0,39,-99.99,,,-99.99,,2013-12-19 01:42:00,
2013-12-18 17:52:00,46.0,26.0,-100.00,SSW,213,8.0,17.0,46,-99.99,,,-99.99,,2013-12-19 01:52:00,
2013-12-18 18:01:00,46.0,26.0,-100.00,SSW,213,8.0,17.0,46,-99.99,,,-99.99,,2013-12-19 02:01:00,
2013-12-18 18:22:00,47.0,26.0,-100.00,South,181,7.0,10.0,44,-99.99,,,-99.99,,2013-12-19 02:22:00,
2013-12-18 18:32:00,47.0,26.0,-100.00,South,181,7.0,10.0,44,-99.99,,,-99.99,,2013-12-19 02:32:00,
2013-12-18 18:42:00,47.0,26.0,-100.00,South,181,7.0,10.0,44,-99.99,,,-99.99,,2013-12-19 02:42:00,
2013-12-18 19:12:00,46.0,23.0,-100.00,SW,223,14.0,24.0,40,-99.99,,,-99.99,,2013-12-19 03:12:00,
2013-12-18 19:21:00,46.0,23.0,-100.00,SW,223,14.0,24.0,40,-99.99,,,-99.99,,2013-12-19 03:21:00,
2013-12-18 19:33:00,46.0,23.0,-100.00,SW,223,14.0,24.0,40,-99.99,,,-99.99,,2013-12-19 03:33:00,
2013-12-18 20:12:00,44.0,26.0,-100.00,WSW,240,14.0,21.0,49,-99.99,,,-99.99,,2013-12-19 04:12:00,
2013-12-18 20:23:00,43.0,27.0,-100.00,South,179,6.0,9.0,52,-99.99,,,-99.99,,2013-12-19 04:23:00,
2013-12-18 20:33:00,43.0,27.0,-100.00,South,179,6.0,9.0,52,-99.99,,,-99.99,,2013-12-19 04:33:00,
2013-12-18 20:43:00,43.0,27.0,-100.00,South,179,6.0,9.0,52,-99.99,,,-99.99,,2013-12-19 04:43:00,
2013-12-18 21:42:00,43.0,24.0,-100.00,South,188,6.0,10.0,47,-99.99,,,-99.99,,2013-12-19 05:42:00,
2013-12-18 22:12:00,42.0,22.0,-100.00,SW,215,5.0,9.0,45,-99.99,,,-99.99,,2013-12-19 06:12:00,
2013-12-18 22:22:00,42.0,23.0,-100.00,SW,217,3.0,5.0,46,-99.99,,,-99.99,,2013-12-19 06:22:00,
2013-12-18 22:32:00,42.0,23.0,-100.00,SW,217,3.0,5.0,46,-99.99,,,-99.99,,2013-12-19 06:32:00,
2013-12-18 22:42:00,42.0,23.0,-100.00,SW,217,3.0,5.0,46,-99.99,,,-99.99,,2013-12-19 06:42:00,
2013-12-18 22:52:00,41.0,22.0,-100.00,South,188,5.0,10.0,46,-99.99,,,-99.99,,2013-12-19 06:52:00,
2013-12-18 23:01:00,41.0,22.0,-100.00,South,188,5.0,10.0,46,-99.99,,,-99.99,,2013-12-19 07:01:00,
2013-12-18 23:42:00,40.0,21.0,-100.00,SW,236,5.0,7.0,47,-99.99,,,-99.99,,2013-12-19 07:42:00,